Regional Weather Roundup
Issued by NWS

Home | Current Version | Previous Version | Text Only | Print | Product List | Glossary On
Versions: 1 2 3 4 5 6 7 8 9 10 11 12 13 14 15 16 17 18 19 20 21 22 23 24 25 26 27 28 29 30 31 32 33 34 35 36 37 38 39 40 41 42 43 44 45 46 47 48 49 50
000
ASUS43 KLSX 301810
RWRMO

WEATHER SUMMARY FOR MISSOURI
NATIONAL WEATHER SERVICE SPRINGFIELD MO
100 PM CDT MON MAY 30 2016

NOTE: "FAIR" INDICATES FEW OR NO CLOUDS BELOW 12,000 FEET WITH NO
       SIGNIFICANT WEATHER AND/OR OBSTRUCTIONS TO VISIBILITY.
       CURRENT SKY AND/OR WEATHER CONDITIONS ARE NOT AVAILABLE FOR
       CHILLICOTHE AND FARMINGTON.

MOZ001>031-035>038-043-044-053-054-301900-
...NORTHERN AND WESTERN MISSOURI...

CITY           SKY/WX    TMP DP  RH WIND       PRES   REMARKS
KANSAS CTY INT CLOUDY    84  64  50 S15G22    30.00F
6HR MIN TEMP:  65; 6HR MAX TEMP:  84;

KANSAS C DTWN  CLOUDY    85  66  53 S8        29.99F
6HR MIN TEMP:  67; 6HR MAX TEMP:  85;

LEE`S SUMMIT   PTSUNNY   81  66  60 SE9       30.01F
6HR MIN TEMP:  66; 6HR MAX TEMP:  81;

ST JOSEPH      SUNNY     85  60  42 SW9       29.98F
6HR MIN TEMP:  65; 6HR MAX TEMP:  85;

CHILLICOTHE      N/A     85  66  53 VRB7      30.01F
6HR MIN TEMP:  63; 6HR MAX TEMP:  85;

KIRKSVILLE     MOSUNNY   84  65  52 S6        30.03F
6HR MIN TEMP:  66; 6HR MAX TEMP:  84;


$$
MOZ066>068-077>081-088>096-101>105-301900-
...SOUTHWEST MISSOURI...

CITY           SKY/WX    TMP DP  RH WIND       PRES   REMARKS
SPRINGFIELD    CLOUDY    80  61  52 S14       30.06S
6HR MIN TEMP:  67; 6HR MAX TEMP:  82;

JOPLIN         TSTM      66  64  93 W10G21    30.09R
6HR MIN TEMP:  66; 6HR MAX TEMP:  76; 6HR PCP:  0.48;

BRANSON        CLOUDY    73  64  73 SW14      30.10F

$$
MOZ032>034-039>042-045>050-055>058-069>072-301900-
...CENTRAL MISSOURI...

CITY           SKY/WX    TMP DP  RH WIND       PRES   REMARKS
COLUMBIA       MOSUNNY   84  64  50 S8        30.04F
6HR MIN TEMP:  66; 6HR MAX TEMP:  85;

JEFFERSON CITY MOSUNNY   85  62  46 S7        30.03F
6HR MIN TEMP:  65; 6HR MAX TEMP:  86;

ROLLA          CLOUDY    82  61  48 VRB5      30.05F
6HR MIN TEMP:  68; 6HR MAX TEMP:  83;

SEDALIA        MOSUNNY   85  66  53 SE10      30.04F
6HR MIN TEMP:  68; 6HR MAX TEMP:  85;

WHITEMAN AFB   PTSUNNY   83  65  53 S7        30.01F
WARRENSBURG    MOSUNNY   82  63  51 SE8       30.01F

$$
MOZ051-052-059>065-301900-
...EAST CENTRAL MISSOURI...

CITY           SKY/WX    TMP DP  RH WIND       PRES   REMARKS
ST LOUIS INTL  PTSUNNY   89  58  34 CALM      30.05F
6HR MIN TEMP:  73; 6HR MAX TEMP:  89;

SPIRIT OF STL  PTSUNNY   86  59  39 CALM      30.03F
6HR MIN TEMP:  66; 6HR MAX TEMP:  86;

ST CHARLES     MOSUNNY   86  61  42 CALM      30.03F
6HR MIN TEMP:  68; 6HR MAX TEMP:  86;


$$
MOZ072>076-082>087-097>100-106>115-301900-
...SOUTH CENTRAL AND SOUTHEAST MISSOURI...

CITY           SKY/WX    TMP DP  RH WIND       PRES   REMARKS
CAPE GIRARDEAU SUNNY     86  61  42 SE6       30.05F
6HR MIN TEMP:  65; 6HR MAX TEMP:  86;

FARMINGTON     PTSUNNY   81  62  52 S5        30.08F
6HR MIN TEMP:  62; 6HR MAX TEMP:  83;

POPLAR BLUFF   SUNNY     85  63  47 NE7       30.04F
6HR MIN TEMP:  67; 6HR MAX TEMP:  85;

WEST PLAINS    PTSUNNY   82  61  48 SE6       30.09F
6HR MIN TEMP:  64; 6HR MAX TEMP:  82;


$$



USA.gov is the U.S. government's official web portal to all federal, state and local government web resources and services.